Location: Waco, TX
(31.5480°N, 97.1670°W)
Time: 12:23:31
(UTC-05:00)

ISS - Pass Details

Date: 12 May 2021
Orbit: 417 x 422 km, 51.6° (Epoch: 15 May)

Event Time Altitude Azimuth Distance (km) Brightness Sun altitude
Rises 21:53:38 0° 210° (SSW) 2,342 0.0 -18.8°
Enters shadow 21:53:39 - 210° (SSW) 2,332 0.0 -18.8°
Reaches altitude 10° 21:55:46 10° 203° (SSW) 1,483 - -19.2°
Maximum altitude 21:58:56 42° 131° (SE) 610 - -19.7°
Drops below altitude 10° 22:02:07 10° 59° (ENE) 1,493 - -20.3°
Sets 22:04:17 0° 52° (NE) 2,360 - -20.6°
